{"data":{"norad_id":66065,"epoch":"2026-05-25T00:34:57.652032Z","epoch_age_seconds":82991,"freshness":"FRESH","line1":"1 66065U 25235H   26145.02427838  .00016838  00000+0  57930-3 0  9994","line2":"2 66065  53.1588 251.0576 0001343  96.8630 263.2523 15.30202435 34605","mean_motion":15.30202435,"eccentricity":0.0001343,"inclination_deg":53.1588,"raan_deg":251.0576,"arg_perigee_deg":96.863,"mean_anomaly_deg":263.2523,"bstar":0.0005793,"rev_number":3460,"period_min":94.105195957292,"perigee_km":474.28739475138,"apogee_km":476.12820316438,"semimajor_km":6853.3447989579,"source":"CELESTRAK","updated_at":"2026-05-25T13:38:21.021445Z"}}